Anchorage Merrill, AK

5:49 PM AKDT on May 24, 2017 (GMT -0800)
Merrill

Weather History for PAMR - August, 2014

Change the Weather History Date:

Sunday, August 3, 2014

  Actual Average Record
Temperature  
Mean Temperature 63 °F -  
Max Temperature 72 °F 66 °F 78 °F (1999)
Min Temperature 57 °F 51 °F 46 °F (1996)
Degree Days  
Heating Degree Days 2    
Growing Degree Days 13 (Base 50)    
Moisture  
Dew Point 52 °F    
Average Humidity 70    
Maximum Humidity 87    
Minimum Humidity 52    
Precipitation  
Precipitation 0.04 in - - ()
Sea Level Pressure  
Sea Level Pressure 29.94 in    
Wind  
Wind Speed 2 mph (NNW)    
Max Wind Speed 7 mph    
Max Gust Speed -    
Visibility 10 miles    
Events Rain    
Averages and records for this station are not official NWS values.
T = Trace of Precipitation, MM = Missing Value Source: NWS Daily Summary

Daily Weather History Graph

Daily Weather History Graph

Search for Another Location

Airport or City:

Trip Planner

Search our weather history database for the weather conditions in past years. The results will help you decide how hot, cold, wet, or windy it might be!

Date:

Astronomy

Aug. 03, 2014 Rise Set
Actual Time 5:37 AM AKDT 10:31 PM AKDT
Civil Twilight 4:33 AM AKDT 11:34 PM AKDT
Nautical Twilight 2:38 AM AKDT 1:33 AM AKDT
Astronomical Twilight Sun does not set Sun does not set
Moon 3:30 PM AKDT (8/3) No Moon Set
Length of Visible Light 19h 01m
Length of Day
16h 54m
Waxing Crescent, 48% of the Moon is Illuminated
Aug 3
Waxing Crescent
Aug 3
First Quarter
Aug 10
Full
Aug 17
Last Quarter
Aug 25
New

Hourly Weather History & Observations

Time (AKDT) Temp. Dew Point Humidity Pressure Visibility Wind Dir Wind Speed Gust Speed Precip Events Conditions
12:53 AM 57.9 °F 48.9 °F 72% 29.96 in 10.0 mi Calm Calm - N/A   Scattered Clouds
1:53 AM 57.9 °F 48.9 °F 72% 29.96 in 10.0 mi Calm Calm - N/A   Scattered Clouds
2:53 AM 59.0 °F 50.0 °F 72% 29.95 in 10.0 mi Calm Calm - N/A   Scattered Clouds
3:53 AM 59.0 °F 52.0 °F 78% 29.95 in 10.0 mi WNW 4.6 mph - 0.00 in Rain Light Rain
4:53 AM 57.0 °F 52.0 °F 83% 29.96 in 10.0 mi NW 3.5 mph - 0.00 in   Overcast
5:53 AM 57.9 °F 52.0 °F 81% 29.96 in 10.0 mi Calm Calm - 0.00 in Rain Light Rain
6:53 AM 57.9 °F 53.1 °F 84% 29.96 in 10.0 mi Calm Calm - 0.02 in Rain Light Rain
7:53 AM 57.9 °F 53.1 °F 84% 29.97 in 10.0 mi ESE 3.5 mph - 0.01 in   Overcast
8:53 AM 57.9 °F 53.1 °F 84% 29.97 in 10.0 mi North 4.6 mph - 0.01 in Rain Light Rain
9:53 AM 57.9 °F 54.0 °F 87% 29.97 in 10.0 mi Calm Calm - 0.00 in   Overcast
10:40 AM 59.0 °F 53.6 °F 82% 29.96 in 10.0 mi Variable 3.5 mph - N/A   Overcast
10:53 AM 60.1 °F 54.0 °F 80% 29.96 in 10.0 mi North 5.8 mph - N/A   Mostly Cloudy
11:53 AM 62.1 °F 53.1 °F 72% 29.96 in 10.0 mi North 3.5 mph - N/A   Mostly Cloudy
12:53 PM 61.0 °F 52.0 °F 72% 29.96 in 10.0 mi North 4.6 mph - N/A   Overcast
1:53 PM 64.9 °F 54.0 °F 68% 29.95 in 10.0 mi Variable 3.5 mph - 0.00 in   Mostly Cloudy
2:53 PM 64.0 °F 51.1 °F 63% 29.94 in 10.0 mi Variable 3.5 mph - N/A   Mostly Cloudy
3:53 PM 64.9 °F 51.1 °F 61% 29.94 in 10.0 mi NW 4.6 mph - N/A   Scattered Clouds
4:53 PM 69.1 °F 51.1 °F 53% 29.93 in 10.0 mi North 4.6 mph - N/A   Scattered Clouds
6:53 PM 69.1 °F 51.1 °F 53% 29.91 in 10.0 mi WNW 6.9 mph - N/A   Scattered Clouds
7:53 PM 69.1 °F 51.1 °F 53% 29.90 in 10.0 mi NW 5.8 mph - N/A   Scattered Clouds
8:53 PM 68.0 °F 50.0 °F 52% 29.90 in 10.0 mi WNW 4.6 mph - N/A   Mostly Cloudy
9:53 PM 68.0 °F 50.0 °F 52% 29.90 in 10.0 mi Calm Calm - N/A   Scattered Clouds
10:53 PM 66.9 °F 50.0 °F 54% 29.89 in 10.0 mi ENE 4.6 mph - N/A   Mostly Cloudy
11:53 PM 64.0 °F 48.9 °F 58% 29.88 in 10.0 mi East 5.8 mph - N/A   Mostly Cloudy